User: anonymous   Login
Location: Three Oaks Observatory
(31.1535°N, 83.5955°W)
Time: 20:43:58
(UTC-04:00)
Language:

FALCONSAT 3 - Orbit

View from above orbital plane
View from above orbital plane
View from above satellite
View from above satellite

Ground track
Ground track

The orbit data is extracted from the following two-line orbital elements,

1 30776U 07006E   19077.91116579 +.00003163 +00000-0 +90161-4 0  9993
2 30776 035.4357 316.2563 0003035 335.1860 024.8720 15.35756199666568
Epoch (UTC): 18 March 2019 21:52:04
Eccentricity: 0.0003035
inclination: 35.4357°
perigee height: 456 km
apogee height: 461 km
right ascension of ascending node: 316.2563°
argument of perigee: 335.1860°
revolutions per day: 15.35756199
mean anomaly at epoch: 24.8720°
orbit number at epoch: 66656

The dashed part of the orbit path shows where the satellite is in the earth's shadow,  

DLR